User: anonymous   Login
Location: Drummondville
(45.8830°N, 72.4830°W)
Time: 02:47:02
(UTC-05:00)
Language:

Vanguard 2 Rocket - Orbit

View from above orbital plane
View from above orbital plane
View from above satellite
View from above satellite

Ground track
Ground track

The orbit data is extracted from the following two-line orbital elements,

1    12U 59001B   18055.47223588 +.00000318 +00000-0 +17757-3 0  9998
2    12 032.9082 063.6397 1666181 319.0662 029.5830 11.44178205183281
Epoch (UTC): 24 February 2018 11:20:01
Eccentricity: 0.1666181
inclination: 32.9082°
perigee height: 555 km
apogee height: 3327 km
right ascension of ascending node: 63.6397°
argument of perigee: 319.0662°
revolutions per day: 11.44178205
mean anomaly at epoch: 29.5830°
orbit number at epoch: 18328

The dashed part of the orbit path shows where the satellite is in the earth's shadow,  

DLR